When you browse on this site, cookies collect data to enhance your experience and personalize the content and advertising you see.
Visit our Privacy Policy to learn more. By continuing to use the site, you agree to this use of cookies and data.
  • In United Kingdom
  • List of Countries
  • For 7 days
  • Water Temperature
  • Weather Map
  • Weather Widgets
  • user-avatar
    Login

    Hourly Weather Chervonaya Sloboda

    Today, 19 October, Saturday

    Time Temperature Precipitation Wind Pressure Humidity
    00:00 +13°C° 0 mm 2 mps 753 mmHg 76%
    01:00 +13°C° 0 mm 1 mps 753 mmHg 78%
    02:00 +13°C° 0 mm 1 mps 753 mmHg 79%
    03:00 +12°C° 0 mm 1 mps 754 mmHg 81%
    04:00 +12°C° 0 mm 1 mps 754 mmHg 83%
    05:00 +12°C° 0 mm 1 mps 754 mmHg 85%
    06:00 +13°C° 0 mm 1 mps 754 mmHg 82%
    07:00 +14°C° 0 mm 1 mps 754 mmHg 79%
    08:00 +14°C° 0 mm 1 mps 754 mmHg 74%
    09:00 +16°C° 0 mm 1 mps 754 mmHg 66%
    10:00 +18°C° 0 mm 2 mps 755 mmHg 58%
    11:00 +20°C° 0 mm 2 mps 755 mmHg 51%
    12:00 +21°C° 0 mm 2 mps 754 mmHg 47%
    13:00 +21°C° 0 mm 2 mps 754 mmHg 44%
    14:00 +23°C° 0 mm 2 mps 754 mmHg 40%
    15:00 +20°C° 0 mm 2 mps 754 mmHg 44%
    16:00 +19°C° 0 mm 2 mps 754 mmHg 49%
    17:00 +17°C° 0 mm 2 mps 753 mmHg 53%
    18:00 +16°C° 0 mm 2 mps 754 mmHg 54%
    19:00 +16°C° 0 mm 2 mps 754 mmHg 56%
    20:00 +15°C° 0 mm 2 mps 754 mmHg 57%
    21:00 +15°C° 0 mm 2 mps 755 mmHg 59%
    22:00 +14°C° 0 mm 2 mps 755 mmHg 61%
    23:00 +14°C° 0 mm 2 mps 755 mmHg 62%

    Tomorrow, 20 October, Sunday

    Time Temperature Precipitation Wind Pressure Humidity
    00:00 +14°C° 0 mm 2 mps 755 mmHg 64%
    01:00 +13°C° 0 mm 2 mps 755 mmHg 66%
    02:00 +13°C° 0 mm 2 mps 755 mmHg 68%
    03:00 +13°C° 0 mm 2 mps 755 mmHg 69%
    04:00 +13°C° 0 mm 2 mps 755 mmHg 71%
    05:00 +12°C° 0 mm 2 mps 755 mmHg 72%
    06:00 +13°C° 0 mm 2 mps 756 mmHg 70%
    07:00 +14°C° 0 mm 2 mps 756 mmHg 68%
    08:00 +14°C° 0 mm 2 mps 756 mmHg 66%
    09:00 +16°C° 0 mm 2 mps 756 mmHg 59%
    10:00 +18°C° 0 mm 3 mps 756 mmHg 53%
    11:00 +20°C° 0 mm 3 mps 756 mmHg 47%
    12:00 +20°C° 0 mm 3 mps 756 mmHg 45%
    13:00 +21°C° 0 mm 3 mps 756 mmHg 43%
    14:00 +22°C° 0 mm 3 mps 756 mmHg 40%
    15:00 +20°C° 0 mm 3 mps 756 mmHg 45%
    16:00 +18°C° 0 mm 2 mps 756 mmHg 49%
    17:00 +17°C° 0 mm 2 mps 756 mmHg 54%
    18:00 +16°C° 0 mm 2 mps 756 mmHg 55%
    19:00 +16°C° 0 mm 2 mps 756 mmHg 56%
    20:00 +15°C° 0 mm 2 mps 756 mmHg 58%
    21:00 +15°C° 0 mm 2 mps 756 mmHg 59%
    22:00 +14°C° 0 mm 2 mps 756 mmHg 59%
    23:00 +14°C° 0 mm 2 mps 756 mmHg 60%

    Day after tomorrow, 21 October, Monday

    Time Temperature Precipitation Wind Pressure Humidity
    00:00 +14°C° 0 mm 2 mps 756 mmHg 62%
    01:00 +13°C° 0 mm 2 mps 756 mmHg 63%
    02:00 +13°C° 0 mm 2 mps 756 mmHg 65%
    03:00 +13°C° 0 mm 2 mps 756 mmHg 67%
    04:00 +13°C° 0 mm 2 mps 756 mmHg 68%
    05:00 +12°C° 0 mm 2 mps 756 mmHg 70%
    06:00 +13°C° 0 mm 2 mps 756 mmHg 68%
    07:00 +14°C° 0 mm 2 mps 757 mmHg 67%
    08:00 +14°C° 0 mm 2 mps 757 mmHg 65%
    09:00 +16°C° 0 mm 3 mps 757 mmHg 59%
    10:00 +18°C° 0 mm 3 mps 757 mmHg 53%
    11:00 +20°C° 0 mm 3 mps 757 mmHg 47%
    12:00 +21°C° 0 mm 3 mps 757 mmHg 45%
    13:00 +21°C° 0 mm 3 mps 757 mmHg 43%
    14:00 +22°C° 0 mm 3 mps 757 mmHg 40%
    15:00 +21°C° 0 mm 3 mps 756 mmHg 45%
    16:00 +19°C° 0 mm 2 mps 756 mmHg 49%
    17:00 +17°C° 0 mm 2 mps 756 mmHg 54%
    18:00 +17°C° 0 mm 2 mps 756 mmHg 55%
    19:00 +16°C° 0 mm 2 mps 756 mmHg 57%
    20:00 +15°C° 0 mm 2 mps 756 mmHg 58%
    21:00 +15°C° 0 mm 2 mps 756 mmHg 59%
    22:00 +15°C° 0 mm 2 mps 756 mmHg 60%
    23:00 +14°C° 0 mm 2 mps 756 mmHg 61%

    22 October, Tuesday

    Time Temperature Precipitation Wind Pressure Humidity
    00:00 +14°C° 0 mm 2 mps 756 mmHg 62%
    01:00 +14°C° 0 mm 2 mps 756 mmHg 64%
    02:00 +14°C° 0 mm 2 mps 756 mmHg 65%
    03:00 +13°C° 0 mm 2 mps 756 mmHg 66%
    04:00 +13°C° 0 mm 2 mps 756 mmHg 67%
    05:00 +13°C° 0 mm 2 mps 756 mmHg 68%
    06:00 +13°C° 0 mm 2 mps 757 mmHg 67%
    07:00 +14°C° 0 mm 2 mps 757 mmHg 66%
    08:00 +15°C° 0 mm 2 mps 757 mmHg 64%
    09:00 +16°C° 0 mm 2 mps 757 mmHg 58%
    10:00 +18°C° 0 mm 2 mps 757 mmHg 52%
    11:00 +20°C° 0 mm 2 mps 757 mmHg 46%
    12:00 +21°C° 0 mm 2 mps 757 mmHg 45%
    13:00 +21°C° 0 mm 2 mps 757 mmHg 43%
    14:00 +23°C° 0 mm 1 mps 757 mmHg 41%
    15:00 +21°C° 0 mm 1 mps 757 mmHg 46%
    16:00 +20°C° 0 mm 1 mps 757 mmHg 50%
    17:00 +19°C° 0 mm 1 mps 757 mmHg 54%
    18:00 +18°C° 0 mm 1 mps 757 mmHg 56%
    19:00 +18°C° 0 mm 1 mps 757 mmHg 57%
    20:00 +16°C° 0 mm 2 mps 757 mmHg 59%
    21:00 +16°C° 0 mm 1 mps 757 mmHg 61%
    22:00 +15°C° 0 mm 1 mps 757 mmHg 62%
    23:00 +15°C° 0 mm 1 mps 757 mmHg 63%

    23 October, Wednesday

    Time Temperature Precipitation Wind Pressure Humidity
    00:00 +14°C° 0 mm 1 mps 757 mmHg 64%
    01:00 +14°C° 0 mm 1 mps 757 mmHg 65%
    02:00 +14°C° 0 mm 1 mps 757 mmHg 66%
    03:00 +14°C° 0 mm 1 mps 757 mmHg 66%
    04:00 +13°C° 0 mm 1 mps 757 mmHg 67%
    05:00 +13°C° 0 mm 1 mps 757 mmHg 67%
    06:00 +14°C° 0 mm 1 mps 757 mmHg 65%
    07:00 +14°C° 0 mm 1 mps 757 mmHg 63%
    08:00 +15°C° 0 mm 1 mps 757 mmHg 61%
    09:00 +17°C° 0 mm 2 mps 757 mmHg 55%
    10:00 +19°C° 0 mm 2 mps 757 mmHg 49%
    11:00 +21°C° 0 mm 3 mps 757 mmHg 43%
    12:00 +21°C° 0 mm 3 mps 757 mmHg 41%
    13:00 +22°C° 0 mm 3 mps 756 mmHg 39%
    14:00 +24°C° 0 mm 3 mps 756 mmHg 38%
    15:00 +21°C° 0 mm 3 mps 756 mmHg 42%
    16:00 +19°C° 0 mm 2 mps 756 mmHg 46%
    17:00 +18°C° 0 mm 2 mps 756 mmHg 50%
    18:00 +17°C° 0 mm 2 mps 756 mmHg 51%
    19:00 +17°C° 0 mm 2 mps 756 mmHg 52%
    20:00 +16°C° 0 mm 2 mps 756 mmHg 53%
    21:00 +16°C° 0 mm 2 mps 756 mmHg 54%
    22:00 +15°C° 0 mm 2 mps 755 mmHg 55%
    23:00 +15°C° 0 mm 2 mps 755 mmHg 56%

    24 October, Thursday

    Time Temperature Precipitation Wind Pressure Humidity
    00:00 +14°C° 0 mm 2 mps 755 mmHg 57%
    01:00 +13°C° 0 mm 3 mps 755 mmHg 58%
    02:00 +13°C° 0 mm 3 mps 755 mmHg 60%
    03:00 +13°C° 0 mm 2 mps 755 mmHg 61%
    04:00 +13°C° 0 mm 2 mps 755 mmHg 61%
    05:00 +13°C° 0 mm 2 mps 755 mmHg 62%
    06:00 +13°C° 0 mm 2 mps 755 mmHg 61%
    07:00 +14°C° 0 mm 2 mps 755 mmHg 59%
    08:00 +14°C° 0 mm 2 mps 755 mmHg 57%
    09:00 +16°C° 0 mm 2 mps 755 mmHg 52%
    10:00 +18°C° 0 mm 3 mps 755 mmHg 46%
    11:00 +20°C° 0 mm 3 mps 755 mmHg 40%
    12:00 +21°C° 0 mm 3 mps 755 mmHg 38%
    13:00 +22°C° 0 mm 3 mps 755 mmHg 37%
    14:00 +22°C° 0 mm 3 mps 755 mmHg 35%
    15:00 +21°C° 0 mm 2 mps 755 mmHg 39%
    16:00 +19°C° 0 mm 2 mps 754 mmHg 43%
    17:00 +18°C° 0 mm 2 mps 754 mmHg 47%
    18:00 +17°C° 0 mm 2 mps 754 mmHg 48%
    19:00 +17°C° 0 mm 2 mps 754 mmHg 49%
    20:00 +16°C° 0 mm 2 mps 754 mmHg 51%
    21:00 +15°C° 0 mm 2 mps 754 mmHg 52%
    22:00 +15°C° 0 mm 2 mps 755 mmHg 53%
    23:00 +15°C° 0 mm 2 mps 755 mmHg 54%
    Show more